Time,TemperatureF,DewpointF,PressureIn,WindDirection,WindDirectionDegrees,WindSpeedMPH,WindSpeedGustMPH,Humidity,HourlyPrecipIn,Conditions,Clouds,dailyrainin,SoftwareType,DateUTC
2013-03-02 00:00:00,58.8,47.1,29.61,NW,315,2.5,2.5,65,0.00,,---,0.00,VWS V13.01,2013-03-02 05:00:00,
2013-03-02 00:05:00,58.8,47.1,29.62,WNW,292,0.4,2.5,65,0.00,,---,0.00,VWS V13.01,2013-03-02 05:05:00,
2013-03-02 00:15:00,58.8,47.5,29.62,North,0,3.6,14.5,66,0.00,,---,0.00,VWS V13.01,2013-03-02 05:15:00,
2013-03-02 00:20:00,58.8,47.5,29.62,North,0,3.6,3.6,66,0.00,,---,0.00,VWS V13.01,2013-03-02 05:20:00,
2013-03-02 00:25:00,58.8,47.5,29.61,NW,315,2.7,3.6,66,0.00,,---,0.00,VWS V13.01,2013-03-02 05:25:00,
2013-03-02 00:35:00,58.6,47.3,29.61,West,270,0.2,2.7,66,0.00,,---,0.00,VWS V13.01,2013-03-02 05:35:00,
2013-03-02 00:45:00,58.5,47.2,29.62,WNW,292,0.0,2.7,66,0.00,,---,0.00,VWS V13.01,2013-03-02 05:45:00,
2013-03-02 00:50:00,58.5,47.2,29.62,WNW,292,0.0,6.7,66,0.00,,---,0.00,VWS V13.01,2013-03-02 05:50:00,
2013-03-02 01:00:00,58.3,46.6,29.61,West,270,1.8,1.8,65,0.00,,---,0.00,VWS V13.01,2013-03-02 06:00:00,
2013-03-02 01:10:00,58.3,46.6,29.62,West,270,2.7,5.8,65,0.00,,---,0.00,VWS V13.01,2013-03-02 06:10:00,
2013-03-02 01:15:00,58.1,46.4,29.62,West,270,4.0,4.0,65,0.00,,---,0.00,VWS V13.01,2013-03-02 06:15:00,
2013-03-02 01:25:00,58.1,46.4,29.61,NW,315,8.7,8.7,65,0.00,,---,0.00,VWS V13.01,2013-03-02 06:25:00,
2013-03-02 01:35:00,58.1,46.0,29.62,WNW,292,6.5,6.5,64,0.00,,---,0.00,VWS V13.01,2013-03-02 06:35:00,
2013-03-02 01:45:00,57.9,45.8,29.61,WNW,292,0.7,4.3,64,0.00,,---,0.00,VWS V13.01,2013-03-02 06:45:00,
2013-03-02 01:55:00,57.9,45.8,29.61,NNW,338,0.7,1.6,64,0.00,,---,0.00,VWS V13.01,2013-03-02 06:55:00,
2013-03-02 02:00:00,57.9,45.4,29.61,NW,315,15.2,15.2,63,0.00,,---,0.00,VWS V13.01,2013-03-02 07:00:00,
2013-03-02 02:10:00,57.9,45.4,29.61,West,270,2.9,2.9,63,0.00,,---,0.00,VWS V13.01,2013-03-02 07:10:00,
2013-03-02 02:20:00,57.7,44.0,29.61,NW,315,0.4,6.9,60,0.00,,---,0.00,VWS V13.01,2013-03-02 07:20:00,
2013-03-02 02:30:00,57.7,43.1,29.61,NW,315,0.0,8.1,58,0.00,,---,0.00,VWS V13.01,2013-03-02 07:30:00,
2013-03-02 02:40:00,57.7,42.6,29.61,NW,315,5.4,6.9,57,0.00,,---,0.00,VWS V13.01,2013-03-02 07:40:00,
2013-03-02 02:50:00,57.6,42.0,29.60,NNW,338,3.4,3.4,56,0.00,,---,0.00,VWS V13.01,2013-03-02 07:50:00,
2013-03-02 03:00:00,57.6,42.0,29.60,WNW,292,1.6,4.3,56,0.00,,---,0.00,VWS V13.01,2013-03-02 08:00:00,
2013-03-02 03:10:00,57.6,42.0,29.60,NNW,338,1.6,5.6,56,0.00,,---,0.00,VWS V13.01,2013-03-02 08:10:00,
2013-03-02 03:15:00,57.4,41.8,29.61,WSW,248,5.4,5.4,56,0.00,,---,0.00,VWS V13.01,2013-03-02 08:15:00,
2013-03-02 03:25:00,57.4,41.8,29.61,NNW,338,3.8,3.8,56,0.00,,---,0.00,VWS V13.01,2013-03-02 08:25:00,
2013-03-02 03:35:00,57.4,41.8,29.60,NNW,338,3.1,3.6,56,0.00,,---,0.00,VWS V13.01,2013-03-02 08:35:00,
2013-03-02 03:40:00,57.4,41.8,29.61,NW,315,0.9,4.5,56,0.00,,---,0.00,VWS V13.01,2013-03-02 08:40:00,
2013-03-02 03:50:00,57.4,41.8,29.61,NW,315,1.8,1.8,56,0.00,,---,0.00,VWS V13.01,2013-03-02 08:50:00,
2013-03-02 04:00:00,57.0,41.5,29.61,NNW,338,0.0,2.2,56,0.00,,---,0.00,VWS V13.01,2013-03-02 09:00:00,
2013-03-02 04:10:00,57.0,41.5,29.62,WNW,292,6.9,6.9,56,0.00,,---,0.00,VWS V13.01,2013-03-02 09:10:00,
2013-03-02 04:15:00,57.0,41.5,29.62,WNW,292,6.9,6.9,56,0.00,,---,0.00,VWS V13.01,2013-03-02 09:15:00,
2013-03-02 04:20:00,57.0,41.5,29.61,NW,315,2.2,6.9,56,0.00,,---,0.00,VWS V13.01,2013-03-02 09:20:00,
2013-03-02 04:30:00,56.8,41.8,29.61,North,0,0.7,2.2,57,0.00,,---,0.00,VWS V13.01,2013-03-02 09:30:00,
2013-03-02 04:35:00,56.8,41.3,29.62,NNW,338,0.7,2.2,56,0.00,,---,0.00,VWS V13.01,2013-03-02 09:35:00,
2013-03-02 04:45:00,56.8,41.8,29.62,NNW,338,3.8,3.8,57,0.00,,---,0.00,VWS V13.01,2013-03-02 09:45:00,
2013-03-02 04:50:00,56.8,41.8,29.62,NNW,338,3.8,3.8,57,0.00,,---,0.00,VWS V13.01,2013-03-02 09:50:00,
2013-03-02 04:55:00,56.8,41.8,29.62,NNW,338,3.8,3.8,57,0.00,,---,0.00,VWS V13.01,2013-03-02 09:55:00,
2013-03-02 05:00:00,56.5,41.5,29.62,NW,315,7.8,7.8,57,0.00,,---,0.00,VWS V13.01,2013-03-02 10:00:00,
2013-03-02 05:15:00,56.3,41.7,29.62,WNW,292,4.9,6.9,58,0.00,,---,0.00,VWS V13.01,2013-03-02 10:15:00,
2013-03-02 05:25:00,56.3,41.7,29.62,NNW,338,1.6,1.6,58,0.00,,---,0.00,VWS V13.01,2013-03-02 10:25:00,
2013-03-02 05:35:00,56.5,42.3,29.63,NW,315,0.9,3.4,59,0.00,,---,0.00,VWS V13.01,2013-03-02 10:35:00,
2013-03-02 05:40:00,56.3,42.2,29.63,NW,315,1.1,1.1,59,0.00,,---,0.00,VWS V13.01,2013-03-02 10:40:00,
2013-03-02 05:50:00,56.3,42.2,29.63,NNW,338,6.0,6.5,59,0.00,,---,0.00,VWS V13.01,2013-03-02 10:50:00,
2013-03-02 05:55:00,56.1,42.0,29.63,WNW,292,12.5,12.5,59,0.00,,---,0.00,VWS V13.01,2013-03-02 10:55:00,
2013-03-02 06:00:00,56.1,42.4,29.63,North,0,0.0,12.5,60,0.00,,---,0.00,VWS V13.01,2013-03-02 11:00:00,
2013-03-02 06:10:00,56.1,42.4,29.65,NW,315,0.7,4.5,60,0.00,,---,0.00,VWS V13.01,2013-03-02 11:10:00,
2013-03-02 06:15:00,56.1,42.4,29.65,NNW,338,3.6,6.5,60,0.00,,---,0.00,VWS V13.01,2013-03-02 11:15:00,
2013-03-02 06:25:00,56.1,42.4,29.65,North,0,2.0,3.8,60,0.00,,---,0.00,VWS V13.01,2013-03-02 11:25:00,
2013-03-02 06:35:00,55.8,42.1,29.65,NW,315,6.9,6.9,60,0.00,,---,0.00,VWS V13.01,2013-03-02 11:35:00,
2013-03-02 06:45:00,55.6,41.5,29.65,North,0,3.4,15.4,59,0.00,,---,0.00,VWS V13.01,2013-03-02 11:45:00,
2013-03-02 06:50:00,55.6,41.9,29.66,NNW,338,6.0,6.0,60,0.00,,---,0.00,VWS V13.01,2013-03-02 11:50:00,
2013-03-02 06:55:00,55.6,41.5,29.66,NW,315,3.6,6.3,59,0.00,,---,0.00,VWS V13.01,2013-03-02 11:55:00,
2013-03-02 07:05:00,55.4,41.8,29.66,WNW,292,0.0,7.8,60,0.00,,---,0.00,VWS V13.01,2013-03-02 12:05:00,
2013-03-02 07:10:00,55.2,41.6,29.66,NW,315,4.5,4.5,60,0.00,,---,0.00,VWS V13.01,2013-03-02 12:10:00,
2013-03-02 07:20:00,55.2,41.6,29.67,North,0,3.8,3.8,60,0.00,,---,0.00,VWS V13.01,2013-03-02 12:20:00,
2013-03-02 07:25:00,55.2,41.2,29.67,WNW,292,2.9,6.7,59,0.00,,---,0.00,VWS V13.01,2013-03-02 12:25:00,
2013-03-02 07:35:00,55.0,41.0,29.67,NW,315,13.0,13.0,59,0.00,,---,0.00,VWS V13.01,2013-03-02 12:35:00,
2013-03-02 07:40:00,55.0,40.5,29.67,NW,315,5.4,13.0,58,0.00,,---,0.00,VWS V13.01,2013-03-02 12:40:00,
2013-03-02 07:50:00,54.9,39.5,29.67,WNW,292,5.8,6.9,56,0.00,,---,0.00,VWS V13.01,2013-03-02 12:50:00,
2013-03-02 08:00:00,55.0,40.1,29.68,North,0,3.8,3.8,57,0.00,,---,0.00,VWS V13.01,2013-03-02 13:00:00,
2013-03-02 08:10:00,54.7,39.3,29.68,NNW,338,0.2,13.6,56,0.00,,---,0.00,VWS V13.01,2013-03-02 13:10:00,
2013-03-02 08:20:00,54.7,38.8,29.68,NNW,338,8.3,8.3,55,0.00,,---,0.00,VWS V13.01,2013-03-02 13:20:00,
2013-03-02 08:30:00,55.0,39.2,29.68,NW,315,0.2,2.9,55,0.00,,---,0.00,VWS V13.01,2013-03-02 13:30:00,
2013-03-02 08:40:00,55.0,38.2,29.68,North,0,5.4,5.4,53,0.00,,---,0.00,VWS V13.01,2013-03-02 13:40:00,
2013-03-02 08:50:00,55.2,37.4,29.67,NNW,338,0.0,5.8,51,0.00,,---,0.00,VWS V13.01,2013-03-02 13:50:00,
2013-03-02 09:00:00,55.4,38.1,29.68,NNW,338,9.4,9.4,52,0.00,,---,0.00,VWS V13.01,2013-03-02 14:00:00,
2013-03-02 09:10:00,55.8,37.4,29.67,North,0,5.8,6.9,50,0.00,,---,0.00,VWS V13.01,2013-03-02 14:10:00,
2013-03-02 09:15:00,55.8,36.9,29.68,NW,315,4.7,7.8,49,0.00,,---,0.00,VWS V13.01,2013-03-02 14:15:00,
2013-03-02 09:25:00,55.9,35.5,29.67,NNW,338,4.0,4.9,46,0.00,,---,0.00,VWS V13.01,2013-03-02 14:25:00,
2013-03-02 09:30:00,55.9,36.5,29.68,NW,315,1.6,4.0,48,0.00,,---,0.00,VWS V13.01,2013-03-02 14:30:00,
2013-03-02 09:40:00,57.0,37.0,29.67,NW,315,1.3,3.1,47,0.00,,---,0.00,VWS V13.01,2013-03-02 14:40:00,
2013-03-02 09:50:00,57.7,37.1,29.67,NNW,338,1.1,9.6,46,0.00,,---,0.00,VWS V13.01,2013-03-02 14:50:00,
2013-03-02 10:00:00,58.1,37.5,29.67,North,0,5.6,18.3,46,0.00,,---,0.00,VWS V13.01,2013-03-02 15:00:00,
2013-03-02 10:10:00,58.5,37.8,29.67,North,0,12.1,22.2,46,0.00,,---,0.00,VWS V13.01,2013-03-02 15:10:00,
2013-03-02 10:20:00,58.8,38.1,29.67,NW,315,0.7,13.4,46,0.00,,---,0.00,VWS V13.01,2013-03-02 15:20:00,
2013-03-02 10:30:00,58.8,37.5,29.67,West,270,0.7,14.1,45,0.00,,---,0.00,VWS V13.01,2013-03-02 15:30:00,
2013-03-02 10:40:00,59.5,38.2,29.67,NW,315,0.7,20.6,45,0.00,,---,0.00,VWS V13.01,2013-03-02 15:40:00,
2013-03-02 10:45:00,59.5,38.2,29.67,NW,315,0.7,0.7,45,0.00,,---,0.00,VWS V13.01,2013-03-02 15:45:00,
2013-03-02 10:55:00,60.6,38.6,29.66,NNW,338,15.9,15.9,44,0.00,,---,0.00,VWS V13.01,2013-03-02 15:55:00,
2013-03-02 11:05:00,61.2,38.5,29.66,North,0,5.6,15.9,43,0.00,,---,0.00,VWS V13.01,2013-03-02 16:05:00,
2013-03-02 11:15:00,61.5,38.8,29.66,NW,315,2.9,2.9,43,0.00,,---,0.00,VWS V13.01,2013-03-02 16:15:00,
2013-03-02 11:20:00,61.7,39.0,29.66,NNW,338,7.6,7.6,43,0.00,,---,0.00,VWS V13.01,2013-03-02 16:20:00,
2013-03-02 11:30:00,62.2,38.9,29.66,WNW,292,0.7,1.8,42,0.00,,---,0.00,VWS V13.01,2013-03-02 16:30:00,
2013-03-02 11:35:00,62.1,39.3,29.65,NW,315,9.4,9.4,43,0.00,,---,0.00,VWS V13.01,2013-03-02 16:35:00,
2013-03-02 11:45:00,62.2,39.5,29.65,NNW,338,3.8,3.8,43,0.00,,---,0.00,VWS V13.01,2013-03-02 16:45:00,
2013-03-02 11:55:00,63.3,40.5,29.65,NNW,338,0.0,4.9,43,0.00,,---,0.00,VWS V13.01,2013-03-02 16:55:00,
2013-03-02 12:00:00,63.5,40.0,29.65,WNW,292,0.0,1.3,42,0.00,,---,0.00,VWS V13.01,2013-03-02 17:00:00,
2013-03-02 12:10:00,63.7,40.2,29.64,NNW,338,2.2,4.9,42,0.00,,---,0.00,VWS V13.01,2013-03-02 17:10:00,
2013-03-02 12:20:00,64.8,41.2,29.63,NNW,338,2.5,6.0,42,0.00,,---,0.00,VWS V13.01,2013-03-02 17:20:00,
2013-03-02 12:30:00,65.5,41.2,29.63,WNW,292,0.2,2.5,41,0.00,,---,0.00,VWS V13.01,2013-03-02 17:30:00,
2013-03-02 12:35:00,65.5,41.2,29.63,NE,45,6.5,6.5,41,0.00,,---,0.00,VWS V13.01,2013-03-02 17:35:00,
2013-03-02 12:40:00,65.3,42.2,29.63,WNW,292,8.1,8.1,43,0.00,,---,0.00,VWS V13.01,2013-03-02 17:40:00,
2013-03-02 12:50:00,65.3,41.6,29.63,North,0,1.8,6.7,42,0.00,,---,0.00,VWS V13.01,2013-03-02 17:50:00,
2013-03-02 12:55:00,65.1,40.9,29.63,West,270,4.5,6.7,41,0.00,,---,0.00,VWS V13.01,2013-03-02 17:55:00,
2013-03-02 13:05:00,65.1,42.1,29.63,North,0,1.8,12.8,43,0.00,,---,0.00,VWS V13.01,2013-03-02 18:05:00,
2013-03-02 13:15:00,65.8,41.5,29.62,NW,315,0.9,4.7,41,0.00,,---,0.00,VWS V13.01,2013-03-02 18:15:00,
2013-03-02 13:20:00,66.0,41.7,29.62,NW,315,6.3,6.3,41,0.00,,---,0.00,VWS V13.01,2013-03-02 18:20:00,
2013-03-02 13:30:00,65.8,43.3,29.62,NW,315,2.7,7.6,44,0.00,,---,0.00,VWS V13.01,2013-03-02 18:30:00,
2013-03-02 13:40:00,66.7,44.2,29.61,NW,315,3.8,6.9,44,0.00,,---,0.00,VWS V13.01,2013-03-02 18:40:00,
2013-03-02 13:50:00,66.7,43.5,29.60,North,0,6.9,9.0,43,0.00,,---,0.00,VWS V13.01,2013-03-02 18:50:00,
2013-03-02 13:55:00,66.6,43.4,29.60,NNW,338,4.0,6.9,43,0.00,,---,0.00,VWS V13.01,2013-03-02 18:55:00,
2013-03-02 14:05:00,66.6,44.0,29.60,North,0,4.0,6.7,44,0.00,,---,0.00,VWS V13.01,2013-03-02 19:05:00,
2013-03-02 14:15:00,66.6,43.4,29.60,West,270,8.7,9.6,43,0.00,,---,0.00,VWS V13.01,2013-03-02 19:15:00,
2013-03-02 14:25:00,66.4,43.8,29.60,WSW,248,7.8,7.8,44,0.00,,---,0.00,VWS V13.01,2013-03-02 19:25:00,
2013-03-02 14:30:00,66.6,44.0,29.60,WSW,248,3.8,7.8,44,0.00,,---,0.00,VWS V13.01,2013-03-02 19:30:00,
2013-03-02 14:35:00,66.9,43.7,29.60,WSW,248,7.6,7.6,43,0.00,,---,0.00,VWS V13.01,2013-03-02 19:35:00,
2013-03-02 14:45:00,66.7,42.9,29.61,NW,315,6.7,9.4,42,0.00,,---,0.00,VWS V13.01,2013-03-02 19:45:00,
2013-03-02 14:50:00,66.4,42.6,29.61,WSW,248,5.8,9.6,42,0.00,,---,0.00,VWS V13.01,2013-03-02 19:50:00,
2013-03-02 15:00:00,66.4,43.2,29.60,WSW,248,6.9,6.9,43,0.00,,---,0.00,VWS V13.01,2013-03-02 20:00:00,
2013-03-02 15:10:00,66.9,43.1,29.60,WSW,248,13.6,13.6,42,0.00,,---,0.00,VWS V13.01,2013-03-02 20:10:00,
2013-03-02 15:15:00,66.7,41.7,29.60,WSW,248,9.6,13.6,40,0.00,,---,0.00,VWS V13.01,2013-03-02 20:15:00,
2013-03-02 15:25:00,66.6,41.5,29.61,WNW,292,8.1,9.2,40,0.00,,---,0.00,VWS V13.01,2013-03-02 20:25:00,
2013-03-02 15:35:00,65.1,40.9,29.61,West,270,3.4,3.4,41,0.00,,---,0.00,VWS V13.01,2013-03-02 20:35:00,
2013-03-02 15:45:00,64.8,40.5,29.61,NW,315,8.1,8.1,41,0.00,,---,0.00,VWS V13.01,2013-03-02 20:45:00,
2013-03-02 15:55:00,64.0,40.5,29.61,NW,315,5.4,7.4,42,0.00,,---,0.00,VWS V13.01,2013-03-02 20:55:00,
2013-03-02 16:00:00,64.0,40.5,29.61,NW,315,6.0,6.0,42,0.00,,---,0.00,VWS V13.01,2013-03-02 21:00:00,
2013-03-02 16:10:00,64.2,40.7,29.61,NNE,22,0.0,5.1,42,0.00,,---,0.00,VWS V13.01,2013-03-02 21:10:00,
2013-03-02 16:20:00,64.0,40.5,29.60,NW,315,3.1,6.0,42,0.00,,---,0.00,VWS V13.01,2013-03-02 21:20:00,
2013-03-02 16:30:00,63.9,41.0,29.60,WSW,248,8.1,8.1,43,0.00,,---,0.00,VWS V13.01,2013-03-02 21:30:00,
2013-03-02 16:40:00,64.0,40.5,29.61,NNW,338,6.7,11.6,42,0.00,,---,0.00,VWS V13.01,2013-03-02 21:40:00,
2013-03-02 16:50:00,63.1,40.3,29.61,NW,315,0.7,6.3,43,0.00,,---,0.00,VWS V13.01,2013-03-02 21:50:00,
2013-03-02 17:00:00,62.8,40.6,29.61,NNW,338,4.7,19.7,44,0.00,,---,0.00,VWS V13.01,2013-03-02 22:00:00,
2013-03-02 17:10:00,62.8,40.6,29.62,WNW,292,0.7,1.3,44,0.00,,---,0.00,VWS V13.01,2013-03-02 22:10:00,
2013-03-02 17:15:00,62.6,40.4,29.62,WNW,292,0.7,0.7,44,0.00,,---,0.00,VWS V13.01,2013-03-02 22:15:00,
2013-03-02 17:25:00,62.6,41.0,29.62,West,270,7.8,7.8,45,0.00,,---,0.00,VWS V13.01,2013-03-02 22:25:00,
2013-03-02 17:30:00,62.4,40.8,29.62,WNW,292,7.4,7.8,45,0.00,,---,0.00,VWS V13.01,2013-03-02 22:30:00,
2013-03-02 17:40:00,62.4,41.4,29.63,WNW,292,4.9,5.8,46,0.00,,---,0.00,VWS V13.01,2013-03-02 22:40:00,
2013-03-02 17:50:00,62.2,41.2,29.63,WNW,292,3.1,3.4,46,0.00,,---,0.00,VWS V13.01,2013-03-02 22:50:00,
2013-03-02 17:55:00,61.9,40.9,29.63,West,270,16.6,16.6,46,0.00,,---,0.00,VWS V13.01,2013-03-02 22:55:00,
2013-03-02 18:00:00,61.5,41.1,29.63,NNW,338,12.8,16.6,47,0.00,,---,0.00,VWS V13.01,2013-03-02 23:00:00,
2013-03-02 18:10:00,61.2,40.8,29.63,WNW,292,17.0,17.0,47,0.00,,---,0.00,VWS V13.01,2013-03-02 23:10:00,
2013-03-02 18:20:00,60.6,40.3,29.63,NNW,338,6.3,6.3,47,0.00,,---,0.00,VWS V13.01,2013-03-02 23:20:00,
2013-03-02 18:25:00,60.6,40.3,29.64,NNW,338,6.3,6.3,47,0.00,,---,0.00,VWS V13.01,2013-03-02 23:25:00,
2013-03-02 18:30:00,60.3,40.5,29.64,NNW,338,4.5,6.3,48,0.00,,---,0.00,VWS V13.01,2013-03-02 23:30:00,
2013-03-02 18:35:00,60.3,40.5,29.64,NNW,338,4.5,4.5,48,0.00,,---,0.00,VWS V13.01,2013-03-02 23:35:00,
2013-03-02 18:45:00,59.7,40.5,29.64,WNW,292,0.7,20.8,49,0.00,,---,0.00,VWS V13.01,2013-03-02 23:45:00,
2013-03-02 18:55:00,59.2,40.0,29.65,WNW,292,2.9,5.4,49,0.00,,---,0.00,VWS V13.01,2013-03-02 23:55:00,
2013-03-02 19:05:00,59.0,39.9,29.65,WNW,292,1.1,7.4,49,0.00,,---,0.00,VWS V13.01,2013-03-03 00:05:00,
2013-03-02 19:15:00,58.8,40.2,29.65,NW,315,1.6,2.9,50,0.00,,---,0.00,VWS V13.01,2013-03-03 00:15:00,
2013-03-02 19:20:00,58.8,40.2,29.66,WNW,292,3.1,14.3,50,0.00,,---,0.00,VWS V13.01,2013-03-03 00:20:00,
2013-03-02 19:30:00,58.8,40.2,29.66,NW,315,16.1,22.2,50,0.00,,---,0.00,VWS V13.01,2013-03-03 00:30:00,
2013-03-02 19:35:00,58.6,40.6,29.66,WNW,292,1.1,16.1,51,0.00,,---,0.00,VWS V13.01,2013-03-03 00:35:00,
2013-03-02 19:45:00,58.6,40.6,29.67,WNW,292,17.0,17.0,51,0.00,,---,0.00,VWS V13.01,2013-03-03 00:45:00,
2013-03-02 19:55:00,58.3,40.8,29.68,WNW,292,0.0,20.1,52,0.00,,---,0.00,VWS V13.01,2013-03-03 00:55:00,
2013-03-02 20:05:00,58.3,40.8,29.67,WNW,292,0.0,1.6,52,0.00,,---,0.00,VWS V13.01,2013-03-03 01:05:00,
2013-03-02 20:15:00,57.9,40.4,29.68,West,270,17.9,17.9,52,0.00,,---,0.00,VWS V13.01,2013-03-03 01:15:00,
2013-03-02 20:20:00,57.9,40.4,29.67,WNW,292,13.2,17.9,52,0.00,,---,0.00,VWS V13.01,2013-03-03 01:20:00,
2013-03-02 20:30:00,57.7,40.7,29.67,WNW,292,19.7,19.7,53,0.00,,---,0.00,VWS V13.01,2013-03-03 01:30:00,
2013-03-02 20:40:00,57.6,40.6,29.68,West,270,1.8,1.8,53,0.00,,---,0.00,VWS V13.01,2013-03-03 01:40:00,
2013-03-02 20:45:00,57.6,41.1,29.68,West,270,0.7,1.8,54,0.00,,---,0.00,VWS V13.01,2013-03-03 01:45:00,
2013-03-02 20:55:00,57.4,40.9,29.68,West,270,5.6,11.6,54,0.00,,---,0.00,VWS V13.01,2013-03-03 01:55:00,
2013-03-02 21:05:00,57.2,40.7,29.68,West,270,0.0,1.6,54,0.00,,---,0.00,VWS V13.01,2013-03-03 02:05:00,
2013-03-02 21:10:00,57.0,41.0,29.68,West,270,0.4,9.4,55,0.00,,---,0.00,VWS V13.01,2013-03-03 02:10:00,
2013-03-02 21:20:00,57.0,41.0,29.68,West,270,0.7,17.0,55,0.00,,---,0.00,VWS V13.01,2013-03-03 02:20:00,
2013-03-02 21:30:00,56.8,40.9,29.68,West,270,0.0,12.3,55,0.00,,---,0.00,VWS V13.01,2013-03-03 02:30:00,
2013-03-02 21:40:00,56.8,40.9,29.68,West,270,6.3,6.3,55,0.00,,---,0.00,VWS V13.01,2013-03-03 02:40:00,
2013-03-02 21:45:00,56.8,40.9,29.68,West,270,0.4,13.4,55,0.00,,---,0.00,VWS V13.01,2013-03-03 02:45:00,
2013-03-02 21:55:00,56.7,40.7,29.68,West,270,11.9,11.9,55,0.00,,---,0.00,VWS V13.01,2013-03-03 02:55:00,
2013-03-02 22:05:00,56.5,41.0,29.68,WSW,248,2.9,2.9,56,0.00,,---,0.00,VWS V13.01,2013-03-03 03:05:00,
2013-03-02 22:10:00,56.5,41.0,29.68,West,270,0.0,8.5,56,0.00,,---,0.00,VWS V13.01,2013-03-03 03:10:00,
2013-03-02 22:20:00,56.5,41.0,29.68,West,270,0.0,0.0,56,0.00,,---,0.00,VWS V13.01,2013-03-03 03:20:00,
2013-03-02 22:30:00,56.1,40.7,29.68,West,270,0.0,5.4,56,0.00,,---,0.00,VWS V13.01,2013-03-03 03:30:00,
2013-03-02 22:35:00,55.9,40.9,29.68,West,270,0.0,0.0,57,0.00,,---,0.00,VWS V13.01,2013-03-03 03:35:00,
2013-03-02 22:45:00,55.8,40.8,29.68,West,270,0.0,0.0,57,0.00,,---,0.00,VWS V13.01,2013-03-03 03:45:00,
2013-03-02 22:55:00,55.6,41.0,29.68,West,270,0.0,0.0,58,0.00,,---,0.00,VWS V13.01,2013-03-03 03:55:00,
2013-03-02 23:05:00,55.2,40.7,29.68,West,270,0.0,0.0,58,0.00,,---,0.00,VWS V13.01,2013-03-03 04:05:00,
2013-03-02 23:10:00,55.2,40.7,29.68,West,270,0.0,0.0,58,0.00,,---,0.00,VWS V13.01,2013-03-03 04:10:00,
2013-03-02 23:20:00,55.0,40.5,29.67,West,270,0.0,0.0,58,0.00,,---,0.00,VWS V13.01,2013-03-03 04:20:00,
2013-03-02 23:25:00,55.0,40.5,29.67,West,270,0.0,0.0,58,0.00,,---,0.00,VWS V13.01,2013-03-03 04:25:00,
2013-03-02 23:35:00,54.9,40.8,29.66,West,270,0.0,0.0,59,0.00,,---,0.00,VWS V13.01,2013-03-03 04:35:00,
2013-03-02 23:45:00,54.5,40.9,29.67,West,270,0.0,0.0,60,0.00,,---,0.00,VWS V13.01,2013-03-03 04:45:00,
2013-03-02 23:50:00,54.3,40.8,29.66,West,270,0.0,0.0,60,0.00,,---,0.00,VWS V13.01,2013-03-03 04:50:00,